GEFSSE_prec_meanprec_282.txt.gz
QPF
0.00 0.00 0.01 0.01 0.01 0.02 0.03 0.02 0.02 0.02 0.02 0.02 0.02 0.02 0.02 0.02 0.03 0.04 0.03 0.02 0.02 0.02 0.02 0.03 0.04 0.03 0.03 0.04 0.03 0.03 0.02 0.02 0.02 0.02 0.02 0.03 0.03 0.04 0.03 0.02 0.01 0.01 0.01
0.00 0.00 0.01 0.01 0.01 0.02 0.02 0.02 0.02 0.02 0.02 0.02 0.02 0.02 0.03 0.04 0.03 0.04 0.04 0.03 0.02 0.03 0.03 0.03 0.03 0.03 0.03 0.04 0.03 0.03 0.03 0.03 0.03 0.02 0.02 0.02 0.02 0.03 0.02 0.03 0.02 0.01 0.01
0.00 0.00 0.01 0.01 0.01 0.02 0.02 0.02 0.02 0.02 0.02 0.02 0.02 0.02 0.02 0.03 0.04 0.04 0.05 0.04 0.03 0.03 0.03 0.02 0.02 0.03 0.03 0.06 0.06 0.04 0.03 0.03 0.03 0.02 0.02 0.02 0.02 0.02 0.02 0.02 0.02 0.02 0.03
0.00 0.00 0.01 0.01 0.01 0.02 0.02 0.02 0.02 0.03 0.03 0.02 0.02 0.02 0.02 0.03 0.05 0.05 0.04 0.04 0.03 0.03 0.03 0.02 0.02 0.02 0.02 0.03 0.07 0.08 0.05 0.03 0.03 0.03 0.02 0.01 0.01 0.02 0.02 0.01 0.02 0.02 0.02
0.01 0.00 0.01 0.02 0.02 0.01 0.02 0.03 0.02 0.03 0.02 0.02 0.03 0.03 0.02 0.02 0.04 0.05 0.04 0.04 0.03 0.03 0.03 0.03 0.02 0.01 0.01 0.01 0.03 0.07 0.07 0.04 0.03 0.03 0.02 0.01 0.01 0.02 0.02 0.02 0.02 0.02 0.02
0.02 0.00 0.00 0.01 0.02 0.02 0.02 0.03 0.03 0.03 0.03 0.02 0.03 0.03 0.03 0.03 0.04 0.04 0.04 0.04 0.03 0.03 0.03 0.03 0.02 0.01 0.01 0.01 0.01 0.04 0.07 0.06 0.04 0.02 0.02 0.02 0.01 0.02 0.03 0.02 0.02 0.02 0.02
0.02 0.01 0.01 0.01 0.01 0.02 0.02 0.03 0.03 0.03 0.02 0.02 0.03 0.03 0.03 0.03 0.03 0.04 0.03 0.03 0.03 0.03 0.03 0.02 0.02 0.01 0.01 0.01 0.01 0.01 0.03 0.06 0.05 0.04 0.03 0.02 0.01 0.03 0.03 0.03 0.03 0.02 0.03
0.01 0.01 0.01 0.01 0.01 0.01 0.02 0.03 0.04 0.04 0.03 0.03 0.04 0.04 0.02 0.02 0.02 0.03 0.03 0.03 0.03 0.03 0.03 0.03 0.02 0.02 0.01 0.01 0.00 0.00 0.01 0.02 0.03 0.04 0.05 0.03 0.02 0.04 0.04 0.05 0.03 0.02 0.02
0.02 0.02 0.01 0.01 0.01 0.01 0.01 0.02 0.03 0.04 0.05 0.05 0.04 0.04 0.03 0.02 0.02 0.03 0.03 0.03 0.04 0.03 0.03 0.03 0.02 0.02 0.01 0.01 0.00 0.00 0.00 0.01 0.02 0.02 0.03 0.04 0.05 0.05 0.06 0.06 0.04 0.03 0.02
0.02 0.01 0.01 0.01 0.00 0.00 0.01 0.01 0.01 0.02 0.04 0.06 0.06 0.04 0.03 0.02 0.01 0.01 0.03 0.04 0.04 0.03 0.03 0.04 0.03 0.02 0.02 0.01 0.00 0.00 0.00 0.00 0.01 0.01 0.02 0.03 0.05 0.06 0.06 0.05 0.04 0.04 0.03
0.02 0.01 0.01 0.01 0.00 0.00 0.01 0.01 0.01 0.01 0.03 0.05 0.06 0.06 0.04 0.01 0.00 0.00 0.01 0.03 0.04 0.04 0.04 0.04 0.04 0.03 0.02 0.01 0.00 0.00 0.00 0.00 0.00 0.01 0.01 0.02 0.02 0.04 0.06 0.06 0.05 0.04 0.04
0.02 0.02 0.01 0.01 0.00 0.00 0.00 0.01 0.01 0.01 0.02 0.03 0.04 0.05 0.04 0.03 0.01 0.00 0.01 0.02 0.03 0.05 0.05 0.05 0.05 0.04 0.03 0.03 0.02 0.01 0.00 0.00 0.00 0.01 0.01 0.02 0.02 0.04 0.05 0.06 0.05 0.05 0.04
0.03 0.02 0.01 0.01 0.01 0.00 0.00 0.01 0.01 0.01 0.02 0.04 0.04 0.06 0.06 0.05 0.03 0.01 0.00 0.02 0.03 0.05 0.06 0.05 0.05 0.05 0.04 0.03 0.03 0.01 0.00 0.00 0.00 0.00 0.01 0.01 0.02 0.04 0.05 0.05 0.05 0.05 0.05
0.02 0.02 0.02 0.01 0.01 0.01 0.01 0.01 0.01 0.02 0.03 0.03 0.04 0.06 0.07 0.07 0.05 0.02 0.01 0.02 0.04 0.06 0.07 0.06 0.05 0.06 0.04 0.03 0.03 0.02 0.01 0.00 0.00 0.00 0.00 0.01 0.02 0.03 0.05 0.06 0.06 0.05 0.05
0.01 0.02 0.02 0.02 0.01 0.01 0.01 0.01 0.02 0.02 0.02 0.03 0.04 0.06 0.07 0.07 0.07 0.04 0.02 0.02 0.03 0.05 0.07 0.07 0.04 0.05 0.05 0.03 0.03 0.04 0.03 0.01 0.01 0.00 0.00 0.00 0.01 0.02 0.04 0.05 0.06 0.06 0.07
0.01 0.02 0.03 0.02 0.02 0.01 0.01 0.01 0.02 0.02 0.03 0.03 0.05 0.05 0.07 0.07 0.07 0.05 0.03 0.03 0.03 0.04 0.05 0.06 0.05 0.04 0.06 0.04 0.03 0.03 0.05 0.03 0.02 0.01 0.01 0.00 0.00 0.01 0.03 0.05 0.06 0.06 0.06
0.01 0.02 0.03 0.03 0.04 0.03 0.02 0.01 0.01 0.03 0.03 0.03 0.04 0.05 0.06 0.06 0.06 0.06 0.04 0.04 0.03 0.03 0.04 0.04 0.05 0.05 0.05 0.04 0.03 0.02 0.02 0.02 0.02 0.01 0.01 0.01 0.00 0.00 0.02 0.04 0.06 0.06 0.07
0.02 0.02 0.03 0.03 0.04 0.04 0.04 0.03 0.02 0.03 0.04 0.04 0.04 0.05 0.05 0.06 0.07 0.06 0.06 0.04 0.05 0.04 0.05 0.04 0.05 0.04 0.04 0.04 0.03 0.02 0.02 0.02 0.01 0.01 0.01 0.01 0.01 0.00 0.01 0.02 0.05 0.08 0.07
0.03 0.02 0.03 0.03 0.03 0.04 0.04 0.03 0.02 0.03 0.05 0.08 0.06 0.05 0.05 0.07 0.08 0.07 0.06 0.06 0.06 0.06 0.06 0.04 0.04 0.04 0.04 0.04 0.03 0.03 0.02 0.02 0.02 0.02 0.02 0.01 0.01 0.01 0.01 0.01 0.03 0.05 0.09
0.04 0.04 0.03 0.03 0.03 0.03 0.04 0.04 0.02 0.02 0.04 0.06 0.07 0.06 0.05 0.05 0.06 0.05 0.05 0.06 0.08 0.08 0.07 0.06 0.03 0.03 0.04 0.03 0.03 0.03 0.03 0.02 0.02 0.03 0.03 0.03 0.02 0.02 0.02 0.01 0.02 0.03 0.06
0.03 0.04 0.04 0.04 0.03 0.03 0.03 0.04 0.03 0.03 0.04 0.05 0.05 0.05 0.05 0.04 0.04 0.05 0.04 0.04 0.06 0.10 0.09 0.08 0.07 0.05 0.05 0.04 0.04 0.03 0.02 0.02 0.02 0.02 0.03 0.04 0.04 0.03 0.02 0.02 0.02 0.03 0.04
0.02 0.03 0.05 0.05 0.03 0.03 0.03 0.03 0.03 0.03 0.03 0.03 0.02 0.02 0.03 0.03 0.03 0.04 0.04 0.03 0.04 0.09 0.12 0.09 0.08 0.06 0.05 0.05 0.04 0.03 0.03 0.02 0.02 0.02 0.03 0.04 0.05 0.04 0.03 0.03 0.02 0.02 0.03
0.02 0.03 0.05 0.05 0.05 0.04 0.03 0.03 0.03 0.03 0.03 0.03 0.02 0.02 0.02 0.02 0.03 0.04 0.04 0.03 0.03 0.05 0.09 0.11 0.09 0.07 0.05 0.05 0.04 0.03 0.02 0.02 0.02 0.02 0.02 0.03 0.04 0.05 0.05 0.04 0.04 0.03 0.03
0.02 0.04 0.07 0.07 0.07 0.05 0.03 0.03 0.03 0.03 0.03 0.03 0.03 0.02 0.02 0.02 0.02 0.04 0.04 0.04 0.04 0.04 0.05 0.08 0.09 0.08 0.07 0.06 0.05 0.03 0.02 0.02 0.02 0.02 0.02 0.03 0.03 0.04 0.05 0.05 0.05 0.05 0.04
0.03 0.05 0.06 0.07 0.07 0.04 0.03 0.04 0.04 0.04 0.04 0.04 0.04 0.03 0.02 0.01 0.02 0.03 0.04 0.05 0.05 0.05 0.05 0.06 0.07 0.07 0.07 0.07 0.06 0.04 0.02 0.01 0.02 0.02 0.02 0.02 0.03 0.04 0.04 0.04 0.05 0.05 0.04
0.04 0.05 0.06 0.06 0.05 0.04 0.04 0.05 0.04 0.03 0.04 0.04 0.04 0.03 0.02 0.01 0.01 0.02 0.03 0.04 0.03 0.03 0.03 0.04 0.04 0.05 0.06 0.06 0.05 0.03 0.03 0.02 0.02 0.02 0.02 0.02 0.03 0.04 0.05 0.04 0.04 0.04 0.04

GEFSSE_prec_meanprec_288.txt.gz
QPF
0.00 0.01 0.01 0.01 0.01 0.01 0.01 0.01 0.01 0.01 0.02 0.02 0.02 0.02 0.03 0.04 0.03 0.04 0.03 0.03 0.02 0.01 0.02 0.02 0.02 0.02 0.02 0.02 0.01 0.02 0.02 0.02 0.03 0.02 0.02 0.02 0.03 0.03 0.02 0.01 0.01 0.01 0.01
0.00 0.01 0.01 0.01 0.01 0.01 0.01 0.01 0.01 0.01 0.01 0.02 0.02 0.02 0.04 0.05 0.04 0.04 0.03 0.04 0.04 0.02 0.02 0.01 0.02 0.02 0.02 0.02 0.01 0.01 0.01 0.01 0.02 0.02 0.02 0.03 0.03 0.02 0.02 0.02 0.01 0.01 0.00
0.00 0.01 0.02 0.01 0.01 0.01 0.01 0.01 0.01 0.01 0.01 0.01 0.02 0.02 0.03 0.04 0.04 0.05 0.04 0.04 0.04 0.03 0.02 0.01 0.02 0.02 0.02 0.02 0.01 0.01 0.01 0.02 0.01 0.01 0.02 0.03 0.02 0.02 0.02 0.02 0.02 0.01 0.01
0.00 0.01 0.01 0.02 0.01 0.01 0.01 0.01 0.01 0.02 0.01 0.01 0.01 0.02 0.02 0.03 0.03 0.04 0.05 0.06 0.04 0.03 0.02 0.02 0.02 0.01 0.01 0.01 0.01 0.01 0.01 0.01 0.01 0.01 0.01 0.01 0.02 0.02 0.02 0.02 0.02 0.01 0.01
0.00 0.00 0.01 0.01 0.01 0.01 0.01 0.01 0.01 0.02 0.02 0.01 0.01 0.01 0.01 0.02 0.03 0.03 0.03 0.05 0.06 0.04 0.03 0.02 0.02 0.02 0.01 0.01 0.01 0.01 0.01 0.01 0.01 0.01 0.01 0.01 0.01 0.02 0.03 0.03 0.03 0.02 0.01
0.00 0.00 0.01 0.01 0.01 0.01 0.01 0.01 0.01 0.02 0.02 0.02 0.01 0.01 0.01 0.02 0.03 0.03 0.03 0.04 0.05 0.05 0.04 0.03 0.02 0.02 0.01 0.01 0.01 0.01 0.01 0.01 0.01 0.01 0.01 0.01 0.01 0.02 0.03 0.04 0.06 0.04 0.02
0.01 0.01 0.01 0.01 0.01 0.01 0.01 0.01 0.02 0.02 0.02 0.02 0.01 0.02 0.02 0.02 0.03 0.03 0.03 0.03 0.04 0.04 0.03 0.03 0.02 0.01 0.01 0.01 0.01 0.01 0.01 0.01 0.02 0.02 0.02 0.01 0.02 0.03 0.03 0.04 0.05 0.05 0.03
0.01 0.02 0.02 0.02 0.02 0.02 0.01 0.01 0.01 0.02 0.02 0.02 0.02 0.02 0.02 0.02 0.03 0.02 0.02 0.03 0.04 0.04 0.02 0.02 0.02 0.01 0.01 0.01 0.01 0.01 0.01 0.00 0.01 0.02 0.02 0.02 0.02 0.02 0.02 0.03 0.04 0.04 0.03
0.01 0.01 0.02 0.02 0.02 0.02 0.01 0.01 0.01 0.01 0.01 0.02 0.02 0.01 0.02 0.02 0.03 0.02 0.02 0.03 0.04 0.04 0.02 0.02 0.02 0.02 0.01 0.01 0.01 0.01 0.00 0.00 0.00 0.01 0.01 0.01 0.02 0.02 0.02 0.03 0.04 0.04 0.04
0.02 0.01 0.01 0.02 0.01 0.01 0.02 0.01 0.01 0.01 0.01 0.01 0.03 0.02 0.01 0.02 0.02 0.01 0.01 0.02 0.03 0.04 0.03 0.02 0.02 0.02 0.02 0.01 0.01 0.01 0.00 0.01 0.00 0.01 0.01 0.01 0.02 0.02 0.02 0.03 0.04 0.04 0.04
0.02 0.01 0.01 0.01 0.01 0.01 0.01 0.01 0.01 0.01 0.01 0.01 0.02 0.02 0.02 0.02 0.01 0.01 0.01 0.01 0.03 0.04 0.04 0.03 0.02 0.02 0.02 0.01 0.01 0.02 0.01 0.01 0.00 0.00 0.00 0.00 0.01 0.02 0.03 0.03 0.03 0.03 0.04
0.02 0.01 0.01 0.01 0.01 0.01 0.00 0.00 0.01 0.01 0.01 0.01 0.01 0.01 0.02 0.03 0.03 0.02 0.02 0.01 0.03 0.04 0.05 0.03 0.01 0.02 0.01 0.01 0.01 0.02 0.02 0.01 0.00 0.00 0.00 0.00 0.01 0.02 0.04 0.05 0.04 0.03 0.03
0.02 0.01 0.01 0.00 0.01 0.01 0.01 0.01 0.01 0.01 0.01 0.01 0.02 0.02 0.02 0.03 0.03 0.03 0.03 0.02 0.03 0.04 0.04 0.04 0.02 0.02 0.02 0.02 0.03 0.03 0.02 0.01 0.01 0.00 0.00 0.00 0.00 0.01 0.04 0.05 0.06 0.06 0.04
0.02 0.01 0.01 0.00 0.00 0.00 0.00 0.00 0.00 0.00 0.01 0.01 0.01 0.01 0.02 0.02 0.03 0.03 0.03 0.03 0.04 0.04 0.04 0.04 0.03 0.01 0.02 0.02 0.03 0.03 0.03 0.02 0.01 0.01 0.00 0.00 0.00 0.01 0.02 0.04 0.06 0.07 0.08
0.02 0.01 0.01 0.00 0.00 0.00 0.01 0.01 0.00 0.00 0.01 0.01 0.02 0.01 0.01 0.02 0.03 0.03 0.03 0.03 0.03 0.04 0.04 0.04 0.03 0.01 0.02 0.02 0.02 0.04 0.04 0.02 0.01 0.01 0.01 0.01 0.00 0.00 0.01 0.03 0.05 0.07 0.08
0.02 0.01 0.01 0.00 0.00 0.00 0.01 0.01 0.01 0.01 0.01 0.01 0.01 0.02 0.02 0.03 0.03 0.03 0.03 0.03 0.04 0.03 0.04 0.04 0.02 0.02 0.02 0.03 0.02 0.02 0.05 0.06 0.03 0.02 0.01 0.01 0.01 0.00 0.01 0.02 0.04 0.06 0.08
0.03 0.01 0.01 0.01 0.00 0.00 0.01 0.01 0.02 0.02 0.02 0.01 0.01 0.02 0.02 0.03 0.03 0.03 0.03 0.03 0.02 0.03 0.05 0.05 0.03 0.03 0.02 0.03 0.03 0.02 0.03 0.06 0.06 0.04 0.02 0.01 0.01 0.00 0.00 0.01 0.03 0.05 0.07
0.05 0.03 0.02 0.01 0.01 0.01 0.01 0.01 0.02 0.02 0.01 0.01 0.01 0.02 0.03 0.03 0.04 0.05 0.04 0.03 0.02 0.03 0.04 0.07 0.05 0.04 0.03 0.03 0.05 0.04 0.03 0.03 0.03 0.03 0.02 0.02 0.01 0.01 0.00 0.01 0.01 0.03 0.05
0.04 0.05 0.05 0.02 0.01 0.01 0.01 0.01 0.01 0.01 0.01 0.01 0.01 0.02 0.04 0.04 0.05 0.06 0.06 0.05 0.03 0.03 0.03 0.06 0.07 0.04 0.03 0.04 0.06 0.06 0.05 0.04 0.02 0.02 0.02 0.01 0.01 0.01 0.00 0.00 0.00 0.01 0.03
0.02 0.03 0.06 0.04 0.01 0.01 0.01 0.01 0.01 0.01 0.01 0.01 0.01 0.02 0.03 0.04 0.05 0.06 0.07 0.06 0.04 0.03 0.03 0.05 0.10 0.07 0.04 0.05 0.06 0.07 0.06 0.04 0.03 0.02 0.01 0.01 0.00 0.01 0.00 0.00 0.00 0.01 0.02
0.01 0.01 0.03 0.03 0.02 0.01 0.01 0.01 0.01 0.01 0.01 0.01 0.01 0.01 0.03 0.05 0.06 0.08 0.07 0.06 0.06 0.03 0.02 0.03 0.11 0.10 0.06 0.05 0.06 0.07 0.07 0.06 0.04 0.03 0.02 0.01 0.00 0.00 0.00 0.00 0.01 0.01 0.01
0.01 0.01 0.02 0.03 0.03 0.02 0.01 0.01 0.01 0.01 0.01 0.01 0.01 0.01 0.02 0.04 0.06 0.07 0.05 0.05 0.05 0.04 0.03 0.03 0.07 0.11 0.08 0.05 0.05 0.06 0.07 0.07 0.06 0.04 0.02 0.01 0.00 0.00 0.00 0.01 0.01 0.01 0.01
0.01 0.01 0.02 0.03 0.04 0.04 0.03 0.02 0.02 0.02 0.01 0.01 0.01 0.01 0.02 0.03 0.05 0.05 0.04 0.03 0.04 0.05 0.05 0.05 0.05 0.08 0.11 0.08 0.05 0.05 0.05 0.05 0.05 0.04 0.02 0.01 0.01 0.00 0.01 0.01 0.01 0.01 0.01
0.01 0.01 0.02 0.03 0.04 0.04 0.04 0.03 0.03 0.03 0.03 0.02 0.01 0.01 0.02 0.03 0.04 0.04 0.03 0.03 0.03 0.04 0.06 0.07 0.06 0.06 0.08 0.09 0.07 0.05 0.03 0.03 0.04 0.04 0.02 0.01 0.01 0.00 0.01 0.01 0.02 0.02 0.02
0.00 0.00 0.01 0.02 0.02 0.03 0.03 0.03 0.03 0.03 0.03 0.02 0.02 0.02 0.02 0.03 0.03 0.03 0.03 0.03 0.03 0.04 0.06 0.07 0.06 0.07 0.07 0.07 0.07 0.05 0.04 0.02 0.02 0.03 0.03 0.02 0.01 0.00 0.00 0.01 0.01 0.02 0.03
0.01 0.01 0.01 0.02 0.02 0.02 0.02 0.02 0.03 0.03 0.03 0.02 0.02 0.02 0.03 0.03 0.03 0.02 0.02 0.03 0.03 0.04 0.04 0.06 0.06 0.07 0.07 0.06 0.06 0.06 0.05 0.04 0.02 0.02 0.03 0.02 0.01 0.01 0.01 0.01 0.01 0.01 0.01

GEFSSE_prec_meanprec_294.txt.gz
QPF
0.00 0.01 0.01 0.01 0.00 0.00 0.00 0.01 0.00 0.00 0.00 0.01 0.01 0.01 0.02 0.02 0.03 0.05 0.05 0.05 0.04 0.02 0.01 0.01 0.02 0.02 0.02 0.01 0.01 0.01 0.02 0.01 0.02 0.02 0.02 0.02 0.02 0.02 0.01 0.01 0.01 0.01 0.01
0.00 0.01 0.01 0.00 0.00 0.00 0.00 0.00 0.00 0.00 0.00 0.00 0.00 0.01 0.02 0.02 0.03 0.04 0.05 0.05 0.05 0.03 0.02 0.02 0.01 0.02 0.02 0.01 0.01 0.01 0.02 0.01 0.01 0.01 0.01 0.01 0.01 0.02 0.02 0.02 0.02 0.02 0.01
0.00 0.01 0.01 0.01 0.00 0.00 0.00 0.00 0.00 0.00 0.00 0.00 0.00 0.01 0.01 0.01 0.02 0.03 0.04 0.04 0.05 0.05 0.03 0.02 0.01 0.01 0.02 0.02 0.01 0.01 0.01 0.01 0.00 0.00 0.01 0.02 0.03 0.02 0.02 0.02 0.01 0.02 0.02
0.00 0.00 0.01 0.01 0.01 0.00 0.00 0.00 0.00 0.00 0.00 0.00 0.01 0.01 0.01 0.01 0.03 0.03 0.04 0.04 0.05 0.05 0.04 0.02 0.01 0.01 0.02 0.02 0.02 0.01 0.01 0.01 0.00 0.00 0.01 0.02 0.03 0.02 0.01 0.01 0.01 0.02 0.02
0.00 0.00 0.01 0.01 0.01 0.00 0.00 0.00 0.00 0.00 0.00 0.01 0.01 0.00 0.00 0.01 0.02 0.03 0.04 0.05 0.05 0.05 0.07 0.04 0.02 0.01 0.02 0.02 0.02 0.01 0.01 0.01 0.00 0.00 0.01 0.02 0.03 0.03 0.02 0.02 0.02 0.02 0.02
0.00 0.00 0.01 0.02 0.01 0.01 0.01 0.01 0.00 0.00 0.00 0.01 0.01 0.01 0.01 0.01 0.01 0.03 0.03 0.03 0.03 0.04 0.05 0.07 0.04 0.03 0.02 0.01 0.01 0.01 0.01 0.00 0.00 0.01 0.01 0.02 0.02 0.03 0.02 0.03 0.03 0.04 0.03
0.00 0.00 0.01 0.01 0.01 0.01 0.01 0.01 0.01 0.01 0.01 0.01 0.01 0.01 0.01 0.01 0.01 0.02 0.02 0.03 0.03 0.04 0.05 0.05 0.05 0.04 0.03 0.01 0.00 0.00 0.00 0.00 0.00 0.01 0.02 0.02 0.02 0.02 0.02 0.03 0.04 0.04 0.04
0.01 0.00 0.00 0.01 0.01 0.02 0.02 0.01 0.01 0.01 0.01 0.01 0.01 0.01 0.02 0.02 0.01 0.02 0.02 0.02 0.03 0.03 0.04 0.05 0.05 0.04 0.03 0.01 0.00 0.00 0.00 0.01 0.02 0.01 0.02 0.04 0.03 0.02 0.02 0.02 0.02 0.03 0.04
0.01 0.01 0.00 0.00 0.01 0.01 0.01 0.01 0.01 0.01 0.01 0.01 0.01 0.01 0.01 0.01 0.01 0.02 0.02 0.02 0.02 0.02 0.02 0.03 0.04 0.05 0.04 0.02 0.01 0.00 0.00 0.01 0.01 0.01 0.03 0.05 0.03 0.03 0.02 0.02 0.02 0.03 0.04
0.02 0.02 0.01 0.00 0.01 0.01 0.01 0.01 0.00 0.00 0.01 0.01 0.01 0.00 0.00 0.01 0.01 0.01 0.01 0.01 0.01 0.02 0.03 0.02 0.02 0.03 0.03 0.03 0.01 0.00 0.00 0.00 0.00 0.01 0.03 0.03 0.04 0.05 0.03 0.02 0.02 0.02 0.03
0.02 0.02 0.02 0.01 0.01 0.01 0.02 0.01 0.00 0.00 0.00 0.00 0.01 0.00 0.00 0.01 0.01 0.01 0.01 0.01 0.01 0.02 0.03 0.03 0.03 0.03 0.02 0.02 0.01 0.01 0.01 0.01 0.01 0.00 0.01 0.02 0.04 0.04 0.03 0.02 0.01 0.01 0.02
0.02 0.02 0.02 0.02 0.01 0.01 0.01 0.01 0.01 0.00 0.00 0.00 0.01 0.01 0.01 0.02 0.03 0.02 0.01 0.00 0.00 0.01 0.03 0.04 0.03 0.03 0.03 0.02 0.01 0.01 0.01 0.02 0.01 0.01 0.01 0.02 0.02 0.02 0.02 0.02 0.02 0.01 0.02
0.02 0.02 0.02 0.02 0.02 0.01 0.01 0.01 0.01 0.01 0.01 0.01 0.01 0.02 0.02 0.03 0.03 0.04 0.03 0.01 0.01 0.01 0.03 0.04 0.04 0.04 0.03 0.02 0.01 0.01 0.01 0.02 0.02 0.02 0.01 0.01 0.01 0.02 0.02 0.02 0.03 0.03 0.02
0.02 0.02 0.03 0.02 0.02 0.01 0.02 0.02 0.01 0.01 0.01 0.01 0.01 0.01 0.02 0.03 0.02 0.03 0.03 0.02 0.02 0.02 0.03 0.05 0.05 0.04 0.03 0.02 0.01 0.00 0.01 0.01 0.02 0.03 0.03 0.02 0.01 0.01 0.01 0.02 0.02 0.04 0.04
0.02 0.02 0.02 0.03 0.02 0.02 0.02 0.02 0.01 0.01 0.00 0.00 0.01 0.01 0.02 0.02 0.02 0.02 0.03 0.03 0.02 0.03 0.03 0.05 0.07 0.05 0.03 0.02 0.01 0.00 0.00 0.01 0.01 0.01 0.02 0.02 0.02 0.01 0.01 0.01 0.02 0.03 0.04
0.02 0.02 0.02 0.02 0.02 0.02 0.02 0.02 0.01 0.01 0.01 0.01 0.01 0.01 0.02 0.02 0.02 0.02 0.02 0.03 0.03 0.04 0.04 0.05 0.07 0.06 0.04 0.01 0.00 0.00 0.00 0.00 0.01 0.01 0.02 0.02 0.02 0.01 0.01 0.01 0.01 0.02 0.04
0.01 0.02 0.03 0.03 0.03 0.03 0.02 0.02 0.01 0.01 0.01 0.01 0.01 0.02 0.02 0.02 0.03 0.02 0.02 0.02 0.02 0.03 0.05 0.06 0.07 0.07 0.05 0.02 0.00 0.00 0.00 0.01 0.01 0.02 0.02 0.02 0.02 0.02 0.01 0.01 0.01 0.01 0.02
0.01 0.01 0.02 0.03 0.04 0.03 0.03 0.03 0.02 0.01 0.01 0.01 0.01 0.01 0.02 0.02 0.03 0.03 0.02 0.02 0.02 0.02 0.03 0.05 0.07 0.06 0.05 0.03 0.01 0.00 0.00 0.01 0.02 0.02 0.02 0.03 0.03 0.03 0.02 0.02 0.02 0.02 0.02
0.01 0.01 0.01 0.02 0.03 0.03 0.03 0.03 0.02 0.02 0.01 0.01 0.01 0.01 0.02 0.03 0.03 0.03 0.03 0.02 0.01 0.02 0.02 0.03 0.06 0.06 0.04 0.04 0.02 0.01 0.01 0.01 0.02 0.02 0.02 0.02 0.03 0.03 0.03 0.03 0.02 0.01 0.02
0.01 0.01 0.01 0.01 0.02 0.03 0.03 0.03 0.03 0.02 0.01 0.01 0.01 0.01 0.02 0.04 0.05 0.05 0.04 0.03 0.03 0.02 0.02 0.02 0.05 0.06 0.04 0.03 0.02 0.01 0.01 0.02 0.03 0.03 0.02 0.02 0.02 0.02 0.02 0.02 0.02 0.01 0.01
0.01 0.01 0.01 0.01 0.02 0.02 0.03 0.03 0.03 0.03 0.02 0.01 0.01 0.01 0.02 0.03 0.06 0.07 0.06 0.04 0.04 0.03 0.02 0.02 0.03 0.06 0.05 0.03 0.03 0.02 0.02 0.03 0.03 0.03 0.03 0.02 0.02 0.02 0.02 0.02 0.02 0.02 0.01
0.00 0.01 0.01 0.01 0.01 0.02 0.03 0.03 0.03 0.03 0.03 0.02 0.02 0.02 0.02 0.04 0.07 0.09 0.08 0.06 0.05 0.04 0.02 0.02 0.02 0.04 0.05 0.03 0.03 0.03 0.03 0.04 0.05 0.04 0.03 0.03 0.02 0.02 0.01 0.01 0.02 0.01 0.01
0.00 0.00 0.00 0.01 0.01 0.02 0.03 0.04 0.04 0.04 0.03 0.03 0.03 0.02 0.03 0.04 0.08 0.09 0.08 0.06 0.06 0.04 0.03 0.02 0.02 0.03 0.05 0.05 0.03 0.02 0.03 0.04 0.05 0.05 0.03 0.02 0.02 0.02 0.01 0.01 0.01 0.01 0.02
0.00 0.00 0.00 0.00 0.02 0.02 0.03 0.04 0.04 0.05 0.04 0.04 0.04 0.03 0.03 0.03 0.06 0.08 0.08 0.07 0.05 0.04 0.03 0.03 0.03 0.03 0.03 0.05 0.05 0.02 0.02 0.03 0.03 0.05 0.04 0.03 0.02 0.01 0.02 0.02 0.01 0.01 0.01
0.00 0.00 0.00 0.00 0.01 0.02 0.02 0.03 0.03 0.04 0.04 0.04 0.05 0.04 0.03 0.03 0.03 0.05 0.06 0.05 0.04 0.04 0.04 0.04 0.04 0.04 0.03 0.04 0.05 0.04 0.03 0.03 0.02 0.04 0.05 0.03 0.02 0.01 0.01 0.01 0.01 0.01 0.01
0.00 0.00 0.00 0.00 0.01 0.01 0.01 0.02 0.02 0.02 0.03 0.03 0.05 0.04 0.03 0.03 0.03 0.04 0.05 0.05 0.04 0.04 0.05 0.05 0.04 0.04 0.04 0.03 0.04 0.05 0.05 0.04 0.03 0.03 0.04 0.03 0.02 0.02 0.01 0.01 0.01 0.00 0.00

GEFSSE_prec_meanprec_300.txt.gz
QPF
0.00 0.00 0.01 0.01 0.01 0.00 0.01 0.01 0.00 0.00 0.00 0.00 0.00 0.01 0.01 0.02 0.02 0.01 0.01 0.02 0.03 0.03 0.02 0.03 0.02 0.01 0.01 0.01 0.01 0.01 0.01 0.01 0.01 0.00 0.01 0.02 0.02 0.02 0.01 0.01 0.01 0.01 0.01
0.00 0.00 0.00 0.01 0.00 0.00 0.00 0.00 0.00 0.00 0.00 0.00 0.00 0.00 0.00 0.01 0.01 0.02 0.01 0.02 0.02 0.03 0.03 0.02 0.02 0.02 0.01 0.01 0.01 0.01 0.01 0.01 0.01 0.00 0.01 0.01 0.01 0.01 0.02 0.01 0.01 0.01 0.01
0.00 0.00 0.01 0.01 0.00 0.00 0.00 0.00 0.00 0.00 0.00 0.00 0.00 0.00 0.00 0.00 0.01 0.01 0.02 0.01 0.02 0.03 0.04 0.03 0.03 0.02 0.01 0.01 0.01 0.01 0.01 0.01 0.01 0.00 0.01 0.00 0.01 0.01 0.01 0.02 0.01 0.01 0.01
0.01 0.00 0.01 0.01 0.01 0.00 0.00 0.00 0.00 0.00 0.00 0.00 0.00 0.00 0.00 0.00 0.01 0.01 0.01 0.01 0.02 0.04 0.04 0.04 0.04 0.04 0.03 0.01 0.01 0.01 0.01 0.01 0.00 0.00 0.00 0.00 0.01 0.03 0.02 0.02 0.02 0.02 0.01
0.02 0.01 0.01 0.01 0.01 0.01 0.00 0.00 0.00 0.00 0.00 0.01 0.00 0.00 0.00 0.01 0.01 0.01 0.00 0.01 0.02 0.03 0.03 0.04 0.04 0.04 0.04 0.02 0.01 0.01 0.01 0.00 0.00 0.00 0.00 0.00 0.01 0.02 0.02 0.02 0.03 0.03 0.02
0.02 0.02 0.01 0.01 0.02 0.01 0.01 0.01 0.00 0.00 0.00 0.00 0.00 0.01 0.01 0.01 0.01 0.01 0.01 0.00 0.01 0.01 0.02 0.04 0.04 0.03 0.03 0.03 0.01 0.01 0.00 0.00 0.00 0.00 0.00 0.00 0.01 0.03 0.03 0.02 0.03 0.03 0.03
0.01 0.01 0.01 0.02 0.02 0.01 0.02 0.01 0.01 0.00 0.01 0.01 0.01 0.01 0.00 0.00 0.01 0.01 0.01 0.00 0.01 0.01 0.02 0.04 0.04 0.03 0.03 0.02 0.01 0.01 0.00 0.00 0.00 0.00 0.01 0.01 0.02 0.03 0.04 0.03 0.03 0.03 0.04
0.01 0.01 0.01 0.02 0.02 0.01 0.01 0.01 0.00 0.01 0.01 0.01 0.01 0.00 0.00 0.00 0.01 0.01 0.01 0.01 0.00 0.01 0.02 0.04 0.07 0.06 0.04 0.03 0.02 0.01 0.00 0.00 0.00 0.00 0.00 0.02 0.03 0.03 0.03 0.03 0.02 0.02 0.03
0.01 0.01 0.02 0.01 0.01 0.01 0.01 0.01 0.00 0.00 0.00 0.01 0.00 0.00 0.00 0.00 0.01 0.01 0.01 0.01 0.00 0.01 0.01 0.02 0.04 0.08 0.05 0.04 0.03 0.01 0.00 0.00 0.00 0.00 0.01 0.02 0.03 0.04 0.03 0.03 0.02 0.02 0.02
0.01 0.01 0.02 0.02 0.02 0.01 0.01 0.01 0.00 0.00 0.00 0.00 0.00 0.00 0.00 0.00 0.00 0.01 0.01 0.00 0.00 0.00 0.01 0.01 0.02 0.05 0.06 0.04 0.03 0.01 0.00 0.00 0.00 0.00 0.01 0.02 0.03 0.04 0.03 0.03 0.02 0.01 0.01
0.00 0.00 0.01 0.02 0.02 0.01 0.01 0.01 0.00 0.00 0.00 0.00 0.00 0.00 0.00 0.00 0.00 0.00 0.01 0.01 0.00 0.00 0.00 0.01 0.01 0.02 0.03 0.03 0.03 0.01 0.00 0.00 0.00 0.00 0.01 0.03 0.03 0.03 0.03 0.03 0.02 0.02 0.01
0.00 0.00 0.01 0.02 0.02 0.02 0.02 0.01 0.00 0.00 0.00 0.00 0.00 0.00 0.00 0.00 0.00 0.00 0.00 0.00 0.00 0.00 0.00 0.00 0.01 0.02 0.03 0.03 0.02 0.01 0.00 0.00 0.00 0.00 0.01 0.03 0.03 0.03 0.02 0.02 0.02 0.02 0.01
0.00 0.00 0.01 0.02 0.02 0.02 0.03 0.02 0.01 0.00 0.00 0.00 0.00 0.00 0.00 0.00 0.00 0.01 0.01 0.01 0.00 0.00 0.00 0.00 0.01 0.01 0.02 0.04 0.02 0.01 0.00 0.00 0.00 0.00 0.01 0.02 0.03 0.04 0.03 0.02 0.02 0.02 0.02
0.00 0.00 0.00 0.01 0.02 0.02 0.03 0.03 0.02 0.01 0.00 0.00 0.00 0.00 0.00 0.00 0.00 0.00 0.01 0.01 0.00 0.00 0.00 0.00 0.01 0.01 0.02 0.05 0.04 0.01 0.00 0.00 0.00 0.00 0.00 0.01 0.01 0.03 0.04 0.03 0.02 0.03 0.03
0.00 0.00 0.00 0.00 0.01 0.02 0.03 0.04 0.03 0.03 0.02 0.01 0.00 0.00 0.00 0.00 0.01 0.01 0.01 0.00 0.01 0.01 0.01 0.01 0.01 0.01 0.02 0.03 0.03 0.02 0.00 0.00 0.00 0.00 0.00 0.00 0.01 0.01 0.02 0.03 0.03 0.02 0.03
0.00 0.00 0.00 0.00 0.01 0.01 0.03 0.06 0.06 0.04 0.03 0.01 0.01 0.00 0.00 0.00 0.01 0.01 0.01 0.01 0.01 0.01 0.01 0.01 0.01 0.01 0.02 0.02 0.02 0.03 0.02 0.00 0.00 0.00 0.00 0.00 0.00 0.01 0.01 0.02 0.03 0.04 0.03
0.00 0.00 0.00 0.00 0.00 0.00 0.01 0.04 0.08 0.09 0.05 0.03 0.01 0.01 0.00 0.01 0.01 0.02 0.01 0.01 0.01 0.01 0.01 0.01 0.01 0.01 0.02 0.03 0.03 0.02 0.02 0.01 0.00 0.00 0.00 0.00 0.00 0.01 0.01 0.01 0.02 0.03 0.04
0.00 0.00 0.00 0.00 0.00 0.00 0.01 0.02 0.03 0.07 0.08 0.05 0.03 0.01 0.01 0.01 0.02 0.02 0.02 0.01 0.01 0.01 0.01 0.01 0.01 0.01 0.02 0.03 0.04 0.03 0.02 0.01 0.01 0.00 0.00 0.00 0.00 0.00 0.01 0.01 0.02 0.02 0.03
0.01 0.00 0.00 0.00 0.00 0.01 0.01 0.02 0.03 0.04 0.05 0.07 0.07 0.04 0.02 0.01 0.01 0.02 0.02 0.01 0.01 0.01 0.01 0.01 0.01 0.01 0.01 0.02 0.03 0.04 0.03 0.02 0.01 0.00 0.00 0.00 0.00 0.00 0.00 0.01 0.02 0.03 0.03
0.00 0.00 0.00 0.00 0.00 0.01 0.01 0.02 0.03 0.04 0.04 0.05 0.05 0.06 0.05 0.03 0.03 0.03 0.04 0.03 0.02 0.01 0.01 0.01 0.01 0.01 0.01 0.02 0.02 0.03 0.03 0.02 0.01 0.00 0.00 0.00 0.00 0.00 0.01 0.01 0.01 0.02 0.03
0.01 0.00 0.00 0.00 0.00 0.00 0.01 0.01 0.02 0.03 0.03 0.03 0.04 0.03 0.03 0.03 0.03 0.04 0.05 0.06 0.04 0.02 0.01 0.01 0.01 0.01 0.01 0.01 0.02 0.02 0.03 0.02 0.01 0.01 0.00 0.00 0.00 0.01 0.01 0.01 0.01 0.02 0.02
0.00 0.00 0.00 0.00 0.00 0.00 0.00 0.01 0.02 0.02 0.02 0.02 0.02 0.02 0.02 0.02 0.02 0.04 0.05 0.06 0.06 0.04 0.03 0.02 0.01 0.02 0.01 0.02 0.01 0.01 0.02 0.02 0.01 0.01 0.01 0.00 0.01 0.01 0.01 0.01 0.01 0.01 0.01
0.00 0.00 0.00 0.00 0.00 0.00 0.01 0.01 0.02 0.02 0.02 0.02 0.02 0.01 0.02 0.02 0.02 0.03 0.04 0.05 0.06 0.06 0.05 0.03 0.02 0.01 0.02 0.02 0.01 0.01 0.01 0.01 0.01 0.01 0.01 0.00 0.00 0.01 0.01 0.01 0.01 0.01 0.01
0.00 0.00 0.00 0.00 0.00 0.00 0.01 0.01 0.01 0.01 0.02 0.02 0.02 0.02 0.01 0.01 0.02 0.03 0.04 0.04 0.04 0.04 0.04 0.04 0.03 0.02 0.02 0.03 0.02 0.01 0.01 0.01 0.01 0.02 0.01 0.00 0.01 0.01 0.01 0.01 0.02 0.01 0.01
0.00 0.00 0.00 0.00 0.00 0.00 0.00 0.01 0.01 0.02 0.02 0.02 0.02 0.02 0.02 0.02 0.03 0.03 0.03 0.03 0.03 0.03 0.03 0.02 0.02 0.02 0.02 0.03 0.03 0.02 0.01 0.01 0.02 0.02 0.02 0.01 0.01 0.02 0.02 0.02 0.02 0.01 0.01
0.00 0.00 0.00 0.00 0.01 0.01 0.01 0.01 0.01 0.02 0.02 0.02 0.02 0.02 0.02 0.02 0.02 0.03 0.03 0.02 0.03 0.03 0.03 0.02 0.02 0.02 0.02 0.02 0.02 0.02 0.02 0.02 0.01 0.02 0.02 0.02 0.02 0.02 0.02 0.02 0.02 0.01 0.01

GEFSSE_prec_meanprec_306.txt.gz
QPF
0.00 0.01 0.01 0.03 0.03 0.02 0.01 0.01 0.01 0.01 0.01 0.01 0.01 0.01 0.01 0.01 0.01 0.01 0.02 0.01 0.02 0.02 0.02 0.03 0.03 0.03 0.02 0.01 0.01 0.01 0.01 0.01 0.01 0.01 0.01 0.01 0.01 0.01 0.01 0.01 0.01 0.01 0.01
0.00 0.01 0.02 0.03 0.04 0.03 0.01 0.01 0.01 0.00 0.00 0.01 0.01 0.01 0.01 0.01 0.00 0.00 0.01 0.01 0.01 0.02 0.02 0.02 0.04 0.04 0.03 0.01 0.01 0.01 0.01 0.01 0.01 0.01 0.01 0.01 0.01 0.01 0.01 0.01 0.02 0.02 0.01
0.01 0.01 0.02 0.04 0.04 0.04 0.03 0.01 0.01 0.01 0.00 0.00 0.00 0.01 0.01 0.01 0.00 0.00 0.01 0.01 0.01 0.02 0.02 0.02 0.03 0.04 0.03 0.02 0.01 0.01 0.01 0.01 0.01 0.00 0.00 0.00 0.01 0.01 0.01 0.01 0.02 0.03 0.02
0.01 0.02 0.02 0.03 0.04 0.04 0.03 0.01 0.01 0.01 0.01 0.00 0.01 0.01 0.01 0.01 0.00 0.00 0.00 0.01 0.02 0.02 0.01 0.02 0.03 0.04 0.03 0.02 0.01 0.01 0.01 0.00 0.00 0.00 0.00 0.00 0.00 0.01 0.01 0.01 0.01 0.03 0.03
0.01 0.01 0.02 0.03 0.04 0.04 0.04 0.02 0.01 0.01 0.01 0.01 0.01 0.01 0.01 0.01 0.00 0.00 0.00 0.00 0.01 0.02 0.01 0.01 0.02 0.03 0.03 0.02 0.01 0.01 0.00 0.00 0.00 0.00 0.00 0.00 0.00 0.01 0.01 0.01 0.01 0.02 0.03
0.01 0.01 0.01 0.02 0.02 0.03 0.03 0.02 0.01 0.01 0.01 0.01 0.01 0.01 0.01 0.01 0.00 0.01 0.00 0.00 0.00 0.01 0.01 0.01 0.02 0.03 0.04 0.03 0.02 0.01 0.00 0.00 0.00 0.00 0.00 0.00 0.00 0.01 0.01 0.02 0.02 0.02 0.02
0.01 0.01 0.01 0.02 0.02 0.03 0.05 0.03 0.02 0.01 0.01 0.01 0.01 0.01 0.01 0.01 0.01 0.01 0.00 0.00 0.00 0.00 0.01 0.01 0.01 0.02 0.03 0.04 0.04 0.02 0.01 0.00 0.00 0.00 0.00 0.00 0.00 0.01 0.02 0.02 0.03 0.02 0.02
0.00 0.01 0.01 0.01 0.02 0.03 0.04 0.03 0.03 0.02 0.01 0.00 0.00 0.00 0.01 0.01 0.01 0.01 0.00 0.00 0.00 0.01 0.01 0.01 0.01 0.01 0.03 0.04 0.05 0.04 0.02 0.00 0.00 0.00 0.00 0.00 0.01 0.03 0.03 0.02 0.02 0.02 0.03
0.00 0.00 0.00 0.01 0.01 0.02 0.03 0.03 0.02 0.02 0.02 0.01 0.00 0.00 0.00 0.01 0.01 0.01 0.01 0.01 0.01 0.01 0.01 0.01 0.01 0.01 0.02 0.05 0.07 0.05 0.02 0.01 0.00 0.00 0.01 0.02 0.03 0.03 0.03 0.02 0.02 0.02 0.02
0.00 0.00 0.00 0.00 0.00 0.01 0.01 0.02 0.02 0.02 0.02 0.02 0.01 0.01 0.01 0.01 0.01 0.01 0.01 0.01 0.01 0.01 0.00 0.01 0.01 0.01 0.03 0.05 0.07 0.06 0.03 0.01 0.01 0.01 0.01 0.03 0.04 0.03 0.02 0.02 0.01 0.01 0.01
0.00 0.00 0.00 0.00 0.00 0.01 0.01 0.01 0.01 0.01 0.01 0.01 0.01 0.02 0.02 0.01 0.00 0.01 0.01 0.01 0.01 0.01 0.00 0.00 0.00 0.00 0.02 0.03 0.06 0.06 0.03 0.01 0.01 0.01 0.02 0.03 0.03 0.03 0.02 0.01 0.01 0.01 0.01
0.00 0.00 0.00 0.00 0.00 0.01 0.01 0.01 0.02 0.02 0.01 0.01 0.01 0.01 0.01 0.01 0.01 0.01 0.01 0.01 0.01 0.01 0.00 0.00 0.00 0.00 0.01 0.01 0.02 0.02 0.01 0.01 0.00 0.01 0.02 0.03 0.02 0.02 0.02 0.02 0.01 0.01 0.01
0.00 0.00 0.00 0.00 0.00 0.01 0.00 0.01 0.01 0.02 0.02 0.02 0.01 0.01 0.01 0.01 0.01 0.01 0.01 0.01 0.01 0.00 0.00 0.00 0.00 0.01 0.01 0.01 0.01 0.01 0.01 0.01 0.00 0.01 0.01 0.01 0.02 0.01 0.02 0.03 0.02 0.01 0.01
0.00 0.01 0.00 0.00 0.01 0.01 0.01 0.01 0.02 0.03 0.02 0.02 0.01 0.01 0.01 0.01 0.01 0.00 0.00 0.00 0.00 0.00 0.00 0.00 0.00 0.00 0.00 0.01 0.02 0.01 0.01 0.01 0.01 0.01 0.01 0.01 0.01 0.01 0.02 0.02 0.03 0.02 0.02
0.00 0.01 0.01 0.00 0.00 0.00 0.00 0.01 0.01 0.02 0.04 0.04 0.03 0.03 0.02 0.01 0.01 0.00 0.00 0.00 0.00 0.00 0.00 0.00 0.00 0.00 0.00 0.01 0.02 0.03 0.02 0.01 0.01 0.01 0.01 0.01 0.00 0.00 0.01 0.01 0.02 0.03 0.02
0.01 0.01 0.01 0.01 0.00 0.00 0.00 0.00 0.00 0.01 0.03 0.05 0.05 0.05 0.04 0.03 0.02 0.01 0.01 0.00 0.00 0.00 0.00 0.00 0.00 0.00 0.00 0.01 0.01 0.02 0.03 0.02 0.01 0.01 0.01 0.00 0.00 0.00 0.00 0.00 0.01 0.02 0.03
0.01 0.01 0.02 0.01 0.01 0.00 0.00 0.00 0.00 0.01 0.03 0.04 0.05 0.05 0.05 0.04 0.03 0.02 0.01 0.01 0.01 0.01 0.01 0.00 0.00 0.00 0.01 0.01 0.01 0.01 0.01 0.02 0.02 0.01 0.01 0.00 0.00 0.00 0.00 0.00 0.01 0.01 0.03
0.01 0.01 0.01 0.02 0.01 0.00 0.00 0.00 0.00 0.00 0.02 0.04 0.06 0.06 0.05 0.04 0.03 0.02 0.02 0.01 0.01 0.01 0.01 0.00 0.00 0.00 0.00 0.01 0.02 0.01 0.01 0.01 0.01 0.01 0.01 0.01 0.00 0.00 0.00 0.00 0.00 0.01 0.01
0.01 0.01 0.01 0.02 0.01 0.01 0.01 0.01 0.01 0.01 0.01 0.01 0.03 0.04 0.05 0.05 0.04 0.03 0.02 0.01 0.01 0.01 0.01 0.01 0.00 0.00 0.00 0.01 0.01 0.01 0.01 0.01 0.01 0.01 0.01 0.01 0.00 0.00 0.00 0.00 0.00 0.00 0.01
0.01 0.01 0.01 0.01 0.02 0.01 0.01 0.01 0.01 0.01 0.01 0.02 0.02 0.02 0.04 0.05 0.05 0.04 0.04 0.04 0.02 0.01 0.01 0.01 0.01 0.01 0.01 0.01 0.01 0.02 0.01 0.01 0.01 0.01 0.01 0.00 0.00 0.00 0.00 0.00 0.00 0.00 0.01
0.00 0.00 0.01 0.01 0.01 0.02 0.01 0.01 0.00 0.00 0.00 0.01 0.02 0.03 0.04 0.05 0.06 0.07 0.06 0.06 0.05 0.04 0.02 0.01 0.01 0.01 0.01 0.01 0.02 0.02 0.02 0.02 0.01 0.01 0.01 0.01 0.00 0.00 0.00 0.00 0.00 0.00 0.00
0.00 0.00 0.00 0.01 0.01 0.01 0.01 0.01 0.01 0.01 0.00 0.01 0.02 0.02 0.03 0.04 0.05 0.06 0.07 0.08 0.07 0.07 0.05 0.03 0.01 0.01 0.02 0.02 0.02 0.02 0.03 0.03 0.02 0.01 0.01 0.01 0.00 0.00 0.00 0.00 0.00 0.00 0.00
0.00 0.00 0.00 0.00 0.01 0.01 0.01 0.01 0.01 0.01 0.00 0.00 0.00 0.01 0.01 0.02 0.03 0.03 0.04 0.05 0.07 0.07 0.07 0.06 0.04 0.03 0.03 0.03 0.03 0.02 0.02 0.02 0.03 0.02 0.01 0.01 0.01 0.00 0.00 0.00 0.00 0.01 0.01
0.00 0.00 0.00 0.00 0.01 0.01 0.01 0.01 0.01 0.01 0.01 0.01 0.01 0.01 0.01 0.01 0.01 0.02 0.03 0.03 0.03 0.04 0.04 0.05 0.04 0.03 0.02 0.03 0.03 0.02 0.02 0.01 0.02 0.02 0.01 0.01 0.01 0.00 0.00 0.00 0.00 0.01 0.01
0.00 0.00 0.00 0.00 0.00 0.01 0.01 0.01 0.01 0.01 0.01 0.01 0.01 0.01 0.01 0.01 0.01 0.01 0.02 0.02 0.02 0.03 0.02 0.02 0.03 0.03 0.02 0.03 0.04 0.04 0.03 0.02 0.01 0.01 0.01 0.01 0.01 0.00 0.00 0.00 0.00 0.01 0.01
0.00 0.00 0.00 0.00 0.00 0.00 0.01 0.01 0.01 0.02 0.02 0.01 0.01 0.01 0.01 0.01 0.01 0.01 0.01 0.01 0.01 0.02 0.02 0.02 0.03 0.03 0.03 0.03 0.04 0.05 0.04 0.03 0.01 0.01 0.01 0.00 0.00 0.00 0.00 0.00 0.01 0.01 0.01